Overview Statistics Trail Chart Weather Telemetry Raw packets
 

This is the latest recevied weather packets stored in our database for station/object OE3MHU-12. If no packets are shown the sender has not sent any weather packets the latest 10 day(s).

<< 13 14 15 16 17 18 >>
Time Temp. Humidity Pressure Rain* Wind** Luminosity Snow
1787897602 20° C 67% 1012.7 hPa 0 mm - - -
1787895801 18.89° C 69% 1011.9 hPa 0 mm - - -
1787892202 18.33° C 72% 1012.3 hPa 0 mm - - -
1787890981 18.33° C 73% 1012.5 hPa 0 mm - - -
1787890402 18.33° C 73% 1012.5 hPa 0 mm - - -
1787888602 18.33° C 72% 1012.7 hPa 0 mm - - -
1787885002 19.44° C 70% 1012.5 hPa 0 mm - - -
1787883202 19.44° C 69% 1012.5 hPa 0 mm - - -
1787881402 20° C 69% 1012.5 hPa 0 mm - - -
1787879602 20° C 68% 1012.9 hPa 0 mm - - -
1787877805 20.56° C 68% 1012.6 hPa 0 mm - - -
1787874203 21.11° C 65% 1013.6 hPa 0 mm - - -
1787870603 21.67° C 64% 1014.1 hPa 0 mm - - -
1787868803 22.22° C 64% 1014.5 hPa 0 mm - - -
1787867006 22.22° C 64% 1014.9 hPa 0 mm - - -
1787863404 21.67° C 66% 1015.1 hPa 0 mm - - -
1787861603 22.22° C 66% 1015.1 hPa 0 mm - - -
1787859804 22.78° C 64% 1015.2 hPa 0 mm - - -
1787858003 23.33° C 63% 1015.2 hPa 0 mm - - -
1787856203 23.89° C 61% 1014.7 hPa 0 mm - - -
1787854403 24.44° C 59% 1014.6 hPa 0 mm - - -
1787852604 25° C 57% 1014.8 hPa 0 mm - - -
1787850804 26.11° C 55% 1014.7 hPa 0 mm - - -
1787849004 26.67° C 53% 1014.7 hPa 0 mm - - -
1787847204 27.78° C 51% 1014.9 hPa 0 mm - - -

* Rain latest hour (hover to see other rain measurements)
** Current wind speed in m/s (hover to see current wind gust speed)